ARIANE 2 DEB, 26728

Orbit data source: Space-Track

ARIANE 2 DEB, 26728 is space debris in HEO originally from a launch on Fri, 27 Jan 1989 UTC launched from the French Guiana (FRGUI). Debris objects in space refer to the collection of defunct objects orbiting the Earth. Examples of debris include non-operational satellites, rocket bodies, and fragments generated from explosions, collisions, or faulty payload assembly.

Loading next visibility...
Identifier
26728, 1989-006F
Orbit
HEO
Country
Flag of FRFR
Related business
Manufacturer
EADS/LV
Mission
Spacecraft
Bus & Motor
Unknown
Mass
Unknown
Launch date (UTC)
1989-01-27 (37 years ago)
Launch vehicle
Unknown
Launch site
French Guiana (FRGUI)
Object type
Payload
Rocket body
Debris
Shape & HBR
Unknown shape, 1.1 m
Radar Cross Section
Large (>1 m²)

Expand to show TLE details & history
Last TLE update: 15 hours ago

TLE from 15 hours ago
0 ARIANE 2 DEB
1 26728U 89006F   26104.28798656  .00000849  00000-0  38116-2 0  9994
2 26728   7.8418 232.1866 7026292 122.4908 324.1617  2.49608780218589
Epoch: 2026-04-14T06:54Z
TLE epoch observation values (Epoch: 2026-04-14T06:54:42.038Z)
Latitude
0.00001°
Longitude
-74.22144°
Altitude
12,354.754 km
Speed
5.019 km/s
True Right ascension
15h 27m 40s
True Declination
0° 00' 00"
Sunlit
Object was in daylight at epoch
Visualization orbit readout
Latitude
Unknown
Longitude
Unknown
Altitude
Unknown
Speed
Unknown
Apparent Right ascension
Unknown
Apparent Declination
Unknown
Sunlit
N/A
Visualization observer readout
Local Sidereal Time
04:25:03
Azimuth
Unknown
Elevation
Unknown
Doppler factor
Unknown
Orbital elements
Apogee altitude
32,716.173 km
Perigee altitude
449.836 km
Semi-major axis
22,961.141 km
Eccentricity
0.70263
Inclination
7.8418°
RAAN
232.1866°
Arg. of periapsis
122.4908°
True anomaly
237.44344°
Mean anomaly
324.1617°
Eccentric anomaly
285.33788°
Mean motion
0.62381 °/min
Orbital period
577.1 mins
BSTAR
0.0038116
Loading maneuver chart data...
Computing Atmospheric mass density...
Loading historical data...
Loading historical data...
Loading historical data...
Loading historical data...
Loading historical data...
Loading historical data...
Loading historical data...

Documentation

Showing up to 5 results
|